Tracking 29892 objects as of 21-Nov-2024
HD Live streaming from Space Station
objects crossing your sky now

DELTA 1 DEB

Track DELTA 1 DEB now!
10-day predictions


NORAD ID: 10765
Int'l Code: 1976-077BN
Perigee: 1,510.5 km
Apogee: 1,719.3 km
Inclination: 102.1 °
Period: 118.4 minutes
Semi major axis: 7985 km
RCS: 0.255 m2 (medium)
Launch date: July 29, 1976
Source: United States (US)
Launch site: AIR FORCE WESTERN TEST RANGE (AFWTR)

Note: This is SATELLITE DEBRIS
Your satellite tracking list
Your tracking list is empty




NASA's NSSDC Master Catalog

Two Line Element Set (TLE):
1 10765U 76077BN  24325.56025639 -.00000035  00000-0  77899-4 0  9991
2 10765 102.0551 183.4773 0130677 303.6154  83.4101 12.16515619146807
Source of the keplerian elements: AFSPC